DECAYED

COSMOS 1174 DEB, 12343 (Decayed)

Orbit data source: Space-Track

COSMOS 1174 DEB, 12343 was space debris in LEO originally from a launch on Fri, 18 Apr 1980 UTC launched from the Tyuratam Missile And Space Complex (TTMTR). Debris objects in space refer to the collection of defunct objects orbiting the Earth. Examples of debris include non-operational satellites, rocket bodies, and fragments generated from explosions, collisions, or faulty payload assembly.

Not visible in the next 10 days
Identifier
12343, 1980-030R
Orbit
Decayed
Country
Flag of CISCIS
Related business
Manufacturer
Unknown
Mission
Decayed spacecraft
Bus & Motor
Unknown
Mass
Unknown
Launch date (UTC)
1980-04-18 (46 years ago)
Launch vehicle
Unknown
Launch site
Tyuratam Missile And Space Complex (TTMTR)
Object type
Payload
Rocket body
Debris
Shape & HBR
Unknown shape, 0.1 m
Radar Cross Section
Small (<0.1 m²)

Expand to show TLE details & history
Last TLE update: 11 months ago

TLE from 11 months ago
0 COSMOS 1174 DEB
1 12343U 80030R   25134.71369329  .03376831  16691-1  93388-2 0  9997
2 12343  66.3365 272.7119 0031613 281.3087  78.4539 15.96766414284757
Epoch: 2025-05-14T17:07Z
TLE epoch observation values (Epoch: 2025-05-14T17:07:43.100Z)
Latitude
-0.00009°
Longitude
143.08816°
Altitude
281.482 km
Speed
7.741 km/s
True Right ascension
18h 10m 50s
True Declination
0° 00' 00"
Sunlit
Object was in full shadow at epoch
Visualization orbit readout
Latitude
Unknown
Longitude
Unknown
Altitude
Unknown
Speed
Unknown
Apparent Right ascension
Unknown
Apparent Declination
Unknown
Sunlit
N/A
Visualization observer readout
Local Sidereal Time
22:11:40
Azimuth
Unknown
Elevation
Unknown
Doppler factor
Unknown
Orbital elements
Apogee altitude
302.747 km
Perigee altitude
260.64 km
Semi-major axis
6,659.83 km
Eccentricity
0.00316
Inclination
66.3365°
RAAN
272.7119°
Arg. of periapsis
281.3087°
True anomaly
78.80911°
Mean anomaly
78.4539°
Eccentric anomaly
78.63148°
Mean motion
3.99345 °/min
Orbital period
90.15 mins
BSTAR
0.0093388
Loading maneuver chart data...
Computing Atmospheric mass density...

Documentation

Showing up to 5 results
|